Location: Amsterdam
(30.7274°N, 84.4357°W)
Time: 18:52:10
(UTC+00:00)

Altair - Pass Details

Date: 11 August 2024
Orbit: 1501 x 1682 km, 47.2° (Epoch: 07 September)

Event Time Altitude Azimuth Distance (km) Brightness Sun altitude
Rises 02:54:07 0° 289° (WNW) 4,659 11.0 -28.8°
Reaches altitude 10° 02:58:49 10° 269° (W) 3,656 10.0 -29.5°
Maximum altitude 03:03:36 15° 237° (WSW) 3,233 9.3 -30.2°
Enters shadow 03:08:04 11° 206° (SSW) 3,592 9.2 -30.9°
Drops below altitude 10° 03:08:23 10° 204° (SSW) 3,642 - -31.0°
Sets 03:13:07 0° 183° (S) 4,630 - -31.7°
